| time (UTC) | temp C | wind direction | speed KPH | gust KPH | rain 1hr cm | rain 24hr cm | rain mn cm | humidity % | barometer mb |
| 20260905012440 | 22 | 91 | 1.6 | 1.6 | 0.00 | 0.00 | 0.00 | 75 | 1016.8 |
| 20260905011937 | 22 | 257 | 3.2 | 9.7 | 0.00 | 0.00 | 0.00 | 74 | 1016.8 |
| 20260905011433 | 22 | 263 | 4.8 | 9.7 | 0.00 | 0.00 | 0.00 | 73 | 1016.7 |
| 20260905010928 | 23 | 158 | 1.6 | 9.7 | 0.00 | 0.00 | 0.00 | 72 | 1016.9 |
| 20260905010423 | 23 | 220 | 4.8 | 4.8 | 0.00 | 0.00 | 0.00 | 72 | 1016.7 |
| 20260905005919 | 23 | 137 | 1.6 | 3.2 | 0.00 | 0.00 | 0.00 | 71 | 1016.7 |
| 20260905005415 | 23 | 278 | 3.2 | 11.3 | 0.00 | 0.00 | 0.00 | 71 | 1016.7 |
| 20260905004909 | 23 | 191 | 3.2 | 6.4 | 0.00 | 0.00 | 0.00 | 70 | 1016.7 |
| 20260905004409 | 23 | 34 | 3.2 | 4.8 | 0.00 | 0.00 | 0.00 | 70 | 1016.6 |
| 20260905003905 | 23 | 265 | 6.4 | 11.3 | 0.00 | 0.00 | 0.00 | 69 | 1016.6 |
| 20260905003401 | 23 | 286 | 6.4 | 9.7 | 0.00 | 0.00 | 0.00 | 68 | 1016.6 |
| 20260905002856 | 24 | 160 | 1.6 | 6.4 | 0.00 | 0.00 | 0.00 | 67 | 1016.4 |
| 20260905002355 | 25 | 237 | 3.2 | 9.7 | 0.00 | 0.00 | 0.00 | 66 | 1016.6 |
| 20260905001845 | 24 | 196 | 1.6 | 4.8 | 0.00 | 0.00 | 0.00 | 67 | 1016.7 |
| 20260905001344 | 25 | 260 | 3.2 | 4.8 | 0.00 | 0.00 | 0.00 | 66 | 1016.6 |
| 20260905000839 | 25 | 273 | 6.4 | 9.7 | 0.00 | 0.00 | 0.00 | 66 | 1016.7 |
| 20260905000334 | 24 | 168 | 1.6 | 4.8 | 0.00 | 0.00 | 0.00 | 66 | 1016.9 |
| 20260904235830 | 24 | 202 | 4.8 | 6.4 | 0.00 | 0.00 | 0.00 | 66 | 1016.7 |
| 20260904235325 | 25 | 283 | 8.0 | 12.9 | 0.00 | 0.00 | 0.00 | 64 | 1016.6 |
| 20260904234821 | 25 | 119 | 0.0 | 4.8 | 0.00 | 0.00 | 0.00 | 64 | 1016.5 |
| 20260904234321 | 25 | 204 | 9.7 | 14.5 | 0.00 | 0.00 | 0.00 | 64 | 1016.6 |
| 20260904233817 | 25 | 255 | 6.4 | 9.7 | 0.00 | 0.00 | 0.00 | 64 | 1016.7 |
| 20260904233312 | 25 | 157 | 0.0 | 3.2 | 0.00 | 0.00 | 0.00 | 65 | 1016.6 |
| 20260904232809 | 25 | 236 | 8.0 | 11.3 | 0.00 | 0.00 | 0.00 | 64 | 1016.8 |
| 20260904232307 | 25 | 247 | 11.3 | 14.5 | 0.00 | 0.00 | 0.00 | 64 | 1016.6 |
| 20260904231801 | 26 | 47 | 4.8 | 12.9 | 0.00 | 0.00 | 0.00 | 64 | 1016.6 |
| 20260904231255 | 26 | 172 | 3.2 | 9.7 | 0.00 | 0.00 | 0.00 | 64 | 1016.5 |
| 20260904230750 | 25 | 172 | 0.0 | 3.2 | 0.00 | 0.00 | 0.00 | 64 | 1016.5 |
| 20260904230244 | 26 | 281 | 1.6 | 11.3 | 0.00 | 0.00 | 0.00 | 63 | 1016.4 |
| 20260904225744 | 26 | 123 | 4.8 | 11.3 | 0.00 | 0.00 | 0.00 | 62 | 1016.8 |
| 20260904225238 | 26 | 250 | 4.8 | 9.7 | 0.00 | 0.00 | 0.00 | 62 | 1016.6 |
| 20260904224737 | 26 | 203 | 1.6 | 6.4 | 0.00 | 0.00 | 0.00 | 62 | 1016.6 |
| 20260904224233 | 27 | 132 | 3.2 | 6.4 | 0.00 | 0.00 | 0.00 | 61 | 1016.3 |
| 20260904223732 | 26 | 172 | 3.2 | 4.8 | 0.00 | 0.00 | 0.00 | 61 | 1016.6 |
| 20260904223227 | 26 | 275 | 1.6 | 11.3 | 0.00 | 0.00 | 0.00 | 62 | 1016.5 |
| 20260904222723 | 26 | 228 | 4.8 | 12.9 | 0.00 | 0.00 | 0.00 | 62 | 1016.4 |
| 20260904222218 | 26 | 242 | 1.6 | 4.8 | 0.00 | 0.00 | 0.00 | 62 | 1016.6 |
| 20260904221717 | 26 | 244 | 4.8 | 14.5 | 0.00 | 0.00 | 0.00 | 62 | 1016.6 |
| 20260904221213 | 26 | 21 | 4.8 | 12.9 | 0.00 | 0.00 | 0.00 | 62 | 1016.7 |
| 20260904220707 | 27 | 162 | 3.2 | 6.4 | 0.00 | 0.00 | 0.00 | 61 | 1016.5 |
| 20260904220157 | 27 | 236 | 4.8 | 6.4 | 0.00 | 0.00 | 0.00 | 60 | 1016.6 |
| 20260904215656 | 26 | 85 | 0.0 | 3.2 | 0.00 | 0.00 | 0.00 | 62 | 1016.8 |
| 20260904215153 | 26 | 149 | 3.2 | 4.8 | 0.00 | 0.00 | 0.00 | 62 | 1016.7 |
| 20260904214652 | 26 | 253 | 4.8 | 9.7 | 0.00 | 0.00 | 0.00 | 62 | 1016.7 |
| 20260904214148 | 26 | 38 | 4.8 | 9.7 | 0.00 | 0.00 | 0.00 | 63 | 1016.7 |
| 20260904213646 | 26 | 350 | 8.0 | 12.9 | 0.00 | 0.00 | 0.00 | 63 | 1016.7 |
| 20260904213143 | 26 | 85 | 1.6 | 4.8 | 0.00 | 0.00 | 0.00 | 63 | 1016.7 |
| 20260904212638 | 26 | 27 | 4.8 | 12.9 | 0.00 | 0.00 | 0.00 | 63 | 1016.8 |
| 20260904212133 | 26 | 145 | 3.2 | 9.7 | 0.00 | 0.00 | 0.00 | 63 | 1016.8 |
| 20260904211632 | 26 | 169 | 3.2 | 6.4 | 0.00 | 0.00 | 0.00 | 63 | 1016.8 |
| 20260904211128 | 26 | 231 | 3.2 | 14.5 | 0.00 | 0.00 | 0.00 | 62 | 1016.8 |
| 20260904210627 | 27 | 57 | 1.6 | 12.9 | 0.00 | 0.00 | 0.00 | 62 | 1016.5 |
| 20260904210123 | 26 | 222 | 3.2 | 9.7 | 0.00 | 0.00 | 0.00 | 63 | 1016.6 |
| 20260904205619 | 26 | 51 | 0.0 | 12.9 | 0.00 | 0.00 | 0.00 | 62 | 1016.5 |
| 20260904205115 | 27 | 288 | 6.4 | 11.3 | 0.00 | 0.00 | 0.00 | 61 | 1016.6 |
| 20260904204610 | 27 | 253 | 4.8 | 9.7 | 0.00 | 0.00 | 0.00 | 61 | 1016.6 |
| 20260904204107 | 27 | 269 | 6.4 | 9.7 | 0.00 | 0.00 | 0.00 | 60 | 1016.6 |
| 20260904203602 | 27 | 123 | 3.2 | 9.7 | 0.00 | 0.00 | 0.00 | 59 | 1016.7 |
| 20260904203059 | 27 | 83 | 3.2 | 11.3 | 0.00 | 0.00 | 0.00 | 59 | 1016.5 |
| 20260904202555 | 27 | 283 | 8.0 | 11.3 | 0.00 | 0.00 | 0.00 | 58 | 1016.6 |
| 20260904202051 | 27 | 336 | 3.2 | 14.5 | 0.00 | 0.00 | 0.00 | 58 | 1016.8 |
| 20260904201550 | 28 | 157 | 6.4 | 9.7 | 0.00 | 0.00 | 0.00 | 56 | 1016.7 |
| 20260904201046 | 28 | 220 | 3.2 | 6.4 | 0.00 | 0.00 | 0.00 | 54 | 1016.7 |
| 20260904200544 | 27 | 288 | 3.2 | 4.8 | 0.00 | 0.00 | 0.00 | 53 | 1016.7 |
| 20260904200039 | 27 | 208 | 6.4 | 9.7 | 0.00 | 0.00 | 0.00 | 54 | 1016.5 |
| 20260904195537 | 27 | 327 | 0.0 | 4.8 | 0.00 | 0.00 | 0.00 | 52 | 1017.0 |
| 20260904195032 | 27 | 105 | 3.2 | 4.8 | 0.00 | 0.00 | 0.00 | 54 | 1017.1 |
| 20260904194527 | 27 | 75 | 0.0 | 3.2 | 0.00 | 0.00 | 0.00 | 54 | 1016.7 |
| 20260904194021 | 28 | 247 | 4.8 | 4.8 | 0.00 | 0.00 | 0.00 | 52 | 1016.8 |
| 20260904193516 | 27 | 228 | 3.2 | 4.8 | 0.00 | 0.00 | 0.00 | 51 | 1016.9 |
| 20260904193013 | 27 | 126 | 1.6 | 4.8 | 0.00 | 0.00 | 0.00 | 55 | 1017.0 |
| 20260904192512 | 27 | 90 | 1.6 | 3.2 | 0.00 | 0.00 | 0.00 | 53 | 1017.2 |
| 20260904192009 | 27 | 149 | 6.4 | 9.7 | 0.00 | 0.00 | 0.00 | 53 | 1017.2 |
| 20260904191504 | 27 | 205 | 4.8 | 6.4 | 0.00 | 0.00 | 0.00 | 54 | 1017.3 |
| 20260904191001 | 26 | 196 | 3.2 | 14.5 | 0.00 | 0.00 | 0.00 | 56 | 1017.2 |
| 20260904190456 | 26 | 115 | 4.8 | 6.4 | 0.00 | 0.00 | 0.00 | 57 | 1017.5 |
| 20260904185951 | 27 | 176 | 3.2 | 4.8 | 0.00 | 0.00 | 0.00 | 54 | 1017.6 |
| 20260904185447 | 27 | 191 | 3.2 | 6.4 | 0.00 | 0.00 | 0.00 | 55 | 1017.6 |
| 20260904184942 | 26 | 160 | 1.6 | 3.2 | 0.00 | 0.00 | 0.00 | 56 | 1017.6 |
| 20260904184437 | 26 | 208 | 1.6 | 6.4 | 0.00 | 0.00 | 0.00 | 57 | 1017.6 |
| 20260904183932 | 26 | 167 | 1.6 | 3.2 | 0.00 | 0.00 | 0.00 | 57 | 1017.6 |
| 20260904183427 | 26 | 129 | 0.0 | 1.6 | 0.00 | 0.00 | 0.00 | 58 | 1017.6 |
| 20260904182923 | 25 | 317 | 1.6 | 3.2 | 0.00 | 0.00 | 0.00 | 58 | 1017.8 |
| 20260904182419 | 26 | 178 | 4.8 | 11.3 | 0.00 | 0.00 | 0.00 | 58 | 1018.0 |
| 20260904181913 | 25 | 140 | 1.6 | 9.7 | 0.00 | 0.00 | 0.00 | 58 | 1017.9 |
| 20260904181409 | 25 | 147 | 1.6 | 6.4 | 0.00 | 0.00 | 0.00 | 61 | 1018.0 |
| 20260904180903 | 25 | 114 | 0.0 | 1.6 | 0.00 | 0.00 | 0.00 | 63 | 1017.9 |
| 20260904180358 | 24 | 93 | 1.6 | 4.8 | 0.00 | 0.00 | 0.00 | 63 | 1018.1 |
| 20260904175857 | 25 | 99 | 3.2 | 3.2 | 0.00 | 0.00 | 0.00 | 62 | 1018.0 |
| 20260904175357 | 24 | 112 | 0.0 | 1.6 | 0.00 | 0.00 | 0.00 | 64 | 1017.9 |
| 20260904174856 | 24 | 68 | 0.0 | 3.2 | 0.00 | 0.00 | 0.00 | 65 | 1018.2 |
| 20260904174353 | 23 | 88 | 0.0 | 3.2 | 0.00 | 0.00 | 0.00 | 64 | 1018.0 |
| 20260904173848 | 24 | 105 | 3.2 | 11.3 | 0.00 | 0.00 | 0.00 | 64 | 1018.0 |
| 20260904173343 | 23 | 183 | 6.4 | 6.4 | 0.00 | 0.00 | 0.00 | 64 | 1018.0 |
| 20260904172839 | 23 | 196 | 0.0 | 1.6 | 0.00 | 0.00 | 0.00 | 66 | 1017.8 |
| 20260904172338 | 23 | 92 | 0.0 | 6.4 | 0.00 | 0.00 | 0.00 | 67 | 1018.0 |
| 20260904171834 | 23 | 113 | 0.0 | 1.6 | 0.00 | 0.00 | 0.00 | 67 | 1018.0 |
| 20260904171329 | 23 | 134 | 1.6 | 3.2 | 0.00 | 0.00 | 0.00 | 66 | 1017.8 |
| 20260904170825 | 23 | 118 | 0.0 | 1.6 | 0.00 | 0.00 | 0.00 | 68 | 1017.7 |
| 20260904170320 | 22 | 107 | 4.8 | 4.8 | 0.00 | 0.00 | 0.00 | 68 | 1017.8 |
| 20260904165820 | 22 | 146 | 1.6 | 4.8 | 0.00 | 0.00 | 0.00 | 69 | 1017.7 |
| 20260904165314 | 22 | 172 | 1.6 | 1.6 | 0.00 | 0.00 | 0.00 | 70 | 1017.7 |
| 20260904164809 | 21 | 138 | 1.6 | 9.7 | 0.00 | 0.00 | 0.00 | 72 | 1017.6 |
| 20260904164304 | 22 | 78 | 8.0 | 9.7 | 0.00 | 0.00 | 0.00 | 72 | 1017.7 |
| 20260904163800 | 21 | 113 | 1.6 | 6.4 | 0.00 | 0.00 | 0.00 | 73 | 1017.5 |
| 20260904163254 | 21 | 88 | 0.0 | 3.2 | 0.00 | 0.00 | 0.00 | 74 | 1017.7 |
| 20260904162754 | 21 | 101 | 1.6 | 6.4 | 0.00 | 0.00 | 0.00 | 74 | 1017.6 |
| 20260904162249 | 21 | 84 | 4.8 | 9.7 | 0.00 | 0.00 | 0.00 | 73 | 1017.5 |
| 20260904161745 | 21 | 88 | 0.0 | 1.6 | 0.00 | 0.00 | 0.00 | 74 | 1017.5 |
| 20260904161244 | 20 | 87 | 1.6 | 4.8 | 0.00 | 0.00 | 0.00 | 77 | 1017.7 |
| 20260904160740 | 21 | 60 | 1.6 | 4.8 | 0.00 | 0.00 | 0.00 | 76 | 1017.6 |
| 20260904160236 | 21 | 133 | 1.6 | 3.2 | 0.00 | 0.00 | 0.00 | 76 | 1017.3 |
| 20260904155735 | 21 | 141 | 1.6 | 1.6 | 0.00 | 0.00 | 0.00 | 77 | 1017.1 |
| 20260904155234 | 20 | 133 | 1.6 | 4.8 | 0.00 | 0.00 | 0.00 | 78 | 1017.3 |
| 20260904154732 | 20 | 79 | 4.8 | 4.8 | 0.00 | 0.00 | 0.00 | 78 | 1017.7 |
| 20260904154227 | 20 | 98 | 1.6 | 6.4 | 0.00 | 0.00 | 0.00 | 80 | 1017.4 |
| 20260904153723 | 20 | 93 | 9.7 | 11.3 | 0.00 | 0.00 | 0.00 | 79 | 1017.3 |
| 20260904153219 | 20 | 113 | 3.2 | 4.8 | 0.00 | 0.00 | 0.00 | 79 | 1017.6 |
| 20260904152716 | 20 | 142 | 1.6 | 9.7 | 0.00 | 0.00 | 0.00 | 81 | 1017.3 |
| 20260904152216 | 19 | 139 | 3.2 | 3.2 | 0.00 | 0.00 | 0.00 | 82 | 1017.3 |
| 20260904151710 | 19 | 104 | 4.8 | 6.4 | 0.00 | 0.00 | 0.00 | 82 | 1017.3 |
| 20260904151209 | 19 | 170 | 3.2 | 6.4 | 0.00 | 0.00 | 0.00 | 83 | 1017.1 |
| 20260904150705 | 18 | 114 | 3.2 | 6.4 | 0.00 | 0.00 | 0.00 | 84 | 1017.5 |
| 20260904150201 | 18 | 128 | 3.2 | 3.2 | 0.00 | 0.00 | 0.00 | 85 | 1017.1 |
| 20260904145659 | 18 | 124 | 1.6 | 3.2 | 0.00 | 0.00 | 0.00 | 86 | 1017.5 |
| 20260904145154 | 17 | 113 | 1.6 | 6.4 | 0.00 | 0.00 | 0.00 | 87 | 1017.3 |
| 20260904144650 | 17 | 91 | 4.8 | 6.4 | 0.00 | 0.00 | 0.00 | 86 | 1017.2 |
| 20260904144145 | 17 | 143 | 1.6 | 3.2 | 0.00 | 0.00 | 0.00 | 87 | 1017.1 |
| 20260904143636 | 17 | 95 | 1.6 | 3.2 | 0.00 | 0.00 | 0.00 | 88 | 1017.2 |
| 20260904143132 | 17 | 111 | 0.0 | 3.2 | 0.00 | 0.00 | 0.00 | 89 | 1017.2 |
| 20260904142629 | 16 | 95 | 0.0 | 3.2 | 0.00 | 0.00 | 0.00 | 90 | 1017.1 |
| 20260904142124 | 16 | 104 | 0.0 | 0.0 | 0.00 | 0.00 | 0.00 | 91 | 1017.1 |
| 20260904141618 | 16 | 143 | 0.0 | 0.0 | 0.00 | 0.00 | 0.00 | 93 | 1016.9 |
| 20260904141113 | 16 | 143 | 0.0 | 0.0 | 0.00 | 0.00 | 0.00 | 94 | 1016.8 |
| 20260904140610 | 15 | 143 | 0.0 | 0.0 | 0.00 | 0.00 | 0.00 | 94 | 1016.7 |
| 20260904140104 | 15 | 126 | 0.0 | 0.0 | 0.00 | 0.00 | 0.00 | 95 | 1016.7 |
| 20260904135603 | 15 | 156 | 0.0 | 0.0 | 0.00 | 0.00 | 0.00 | 95 | 1016.8 |
| 20260904135059 | 15 | 153 | 0.0 | 0.0 | 0.00 | 0.00 | 0.00 | 95 | 1016.8 |
| 20260904134554 | 15 | 153 | 0.0 | 1.6 | 0.00 | 0.00 | 0.00 | 95 | 1016.8 |
| 20260904134043 | 15 | 148 | 0.0 | 1.6 | 0.00 | 0.00 | 0.00 | 95 | 1016.6 |
| 20260904133542 | 15 | 130 | 1.6 | 3.2 | 0.00 | 0.00 | 0.00 | 95 | 1016.5 |
| 20260904133033 | 15 | 155 | 1.6 | 1.6 | 0.00 | 0.00 | 0.00 | 95 | 1016.5 |
| 20260904132527 | 15 | 170 | 0.0 | 0.0 | 0.00 | 0.00 | 0.00 | 95 | 1016.4 |
| 20260904132021 | 15 | 146 | 0.0 | 0.0 | 0.00 | 0.00 | 0.00 | 95 | 1016.6 |
| 20260904131516 | 15 | 123 | 0.0 | 3.2 | 0.00 | 0.00 | 0.00 | 95 | 1016.4 |
| 20260904131012 | 15 | 110 | 0.0 | 1.6 | 0.00 | 0.00 | 0.00 | 95 | 1016.6 |
| 20260904130511 | 15 | 133 | 0.0 | 1.6 | 0.00 | 0.00 | 0.00 | 95 | 1016.2 |
| 20260904130006 | 15 | 146 | 0.0 | 1.6 | 0.00 | 0.00 | 0.00 | 95 | 1016.3 |
| 20260904125502 | 15 | 145 | 0.0 | 1.6 | 0.00 | 0.00 | 0.00 | 95 | 1016.5 |
| 20260904124956 | 15 | 141 | 0.0 | 0.0 | 0.00 | 0.00 | 0.00 | 95 | 1016.1 |
| 20260904124452 | 15 | 159 | 1.6 | 3.2 | 0.00 | 0.00 | 0.00 | 95 | 1016.6 |
| 20260904123948 | 15 | 142 | 0.0 | 1.6 | 0.00 | 0.00 | 0.00 | 95 | 1016.6 |
| 20260904123442 | 15 | 152 | 0.0 | 0.0 | 0.00 | 0.00 | 0.00 | 94 | 1016.3 |
| 20260904122938 | 15 | 137 | 0.0 | 0.0 | 0.00 | 0.00 | 0.00 | 94 | 1016.2 |
| 20260904122437 | 15 | 143 | 0.0 | 0.0 | 0.00 | 0.00 | 0.00 | 94 | 1016.4 |
| 20260904121932 | 15 | 138 | 0.0 | 0.0 | 0.00 | 0.00 | 0.00 | 94 | 1016.2 |
| 20260904121428 | 15 | 148 | 0.0 | 0.0 | 0.00 | 0.00 | 0.00 | 94 | 1016.2 |
| 20260904120925 | 15 | 149 | 0.0 | 0.0 | 0.00 | 0.00 | 0.00 | 94 | 1016.1 |
| 20260904120420 | 15 | 149 | 0.0 | 0.0 | 0.00 | 0.00 | 0.00 | 94 | 1016.3 |
| 20260904115915 | 14 | 151 | 0.0 | 0.0 | 0.00 | 0.00 | 0.00 | 94 | 1016.3 |
| 20260904115410 | 14 | 153 | 0.0 | 0.0 | 0.00 | 0.00 | 0.00 | 94 | 1016.2 |
| 20260904114904 | 14 | 151 | 0.0 | 0.0 | 0.00 | 0.00 | 0.00 | 95 | 1016.1 |
| 20260904114359 | 14 | 132 | 0.0 | 0.0 | 0.00 | 0.00 | 0.00 | 95 | 1016.3 |
| 20260904113855 | 13 | 158 | 0.0 | 0.0 | 0.00 | 0.00 | 0.00 | 95 | 1016.3 |
| 20260904113354 | 13 | 143 | 0.0 | 0.0 | 0.00 | 0.00 | 0.00 | 95 | 1016.2 |
| 20260904112854 | 13 | 143 | 0.0 | 0.0 | 0.00 | 0.00 | 0.00 | 95 | 1016.1 |
| 20260904112349 | 13 | 143 | 0.0 | 0.0 | 0.00 | 0.00 | 0.00 | 95 | 1016.1 |
| 20260904111845 | 13 | 143 | 0.0 | 0.0 | 0.00 | 0.00 | 0.00 | 95 | 1016.2 |
| 20260904111341 | 13 | 143 | 0.0 | 0.0 | 0.00 | 0.00 | 0.00 | 95 | 1016.1 |
| 20260904110837 | 13 | 149 | 0.0 | 0.0 | 0.00 | 0.00 | 0.00 | 96 | 1016.2 |
| 20260904110335 | 13 | 149 | 0.0 | 0.0 | 0.00 | 0.00 | 0.00 | 95 | 1016.3 |
| 20260904105830 | 13 | 151 | 0.0 | 0.0 | 0.00 | 0.00 | 0.00 | 95 | 1016.1 |
| 20260904105325 | 13 | 151 | 0.0 | 0.0 | 0.00 | 0.00 | 0.00 | 95 | 1016.2 |
| 20260904104820 | 13 | 151 | 0.0 | 0.0 | 0.00 | 0.00 | 0.00 | 95 | 1016.3 |
| 20260904104315 | 13 | 151 | 0.0 | 0.0 | 0.00 | 0.00 | 0.00 | 95 | 1016.2 |
| 20260904103812 | 13 | 151 | 0.0 | 0.0 | 0.00 | 0.00 | 0.00 | 95 | 1016.2 |
| 20260904103312 | 13 | 151 | 0.0 | 0.0 | 0.00 | 0.00 | 0.00 | 95 | 1015.8 |
| 20260904102808 | 13 | 151 | 0.0 | 0.0 | 0.00 | 0.00 | 0.00 | 95 | 1016.1 |
| 20260904102306 | 13 | 151 | 0.0 | 0.0 | 0.00 | 0.00 | 0.00 | 95 | 1016.2 |
| 20260904101759 | 13 | 147 | 0.0 | 0.0 | 0.00 | 0.00 | 0.00 | 95 | 1016.1 |
| 20260904101255 | 13 | 147 | 0.0 | 0.0 | 0.00 | 0.00 | 0.00 | 95 | 1015.7 |
| 20260904100751 | 13 | 147 | 0.0 | 0.0 | 0.00 | 0.00 | 0.00 | 95 | 1016.0 |
| 20260904100246 | 13 | 147 | 0.0 | 0.0 | 0.00 | 0.00 | 0.00 | 95 | 1016.1 |
| 20260904095746 | 13 | 134 | 0.0 | 0.0 | 0.00 | 0.00 | 0.00 | 95 | 1015.9 |
| 20260904095241 | 13 | 152 | 0.0 | 0.0 | 0.00 | 0.00 | 0.00 | 94 | 1016.1 |
| 20260904094736 | 14 | 152 | 0.0 | 0.0 | 0.00 | 0.00 | 0.00 | 94 | 1016.2 |
| 20260904094231 | 14 | 152 | 0.0 | 0.0 | 0.00 | 0.00 | 0.00 | 94 | 1016.1 |
| 20260904093728 | 14 | 151 | 0.0 | 0.0 | 0.00 | 0.00 | 0.00 | 94 | 1016.1 |
| 20260904093227 | 14 | 151 | 0.0 | 0.0 | 0.00 | 0.00 | 0.00 | 94 | 1016.0 |
| 20260904092723 | 14 | 151 | 0.0 | 0.0 | 0.00 | 0.00 | 0.00 | 94 | 1016.1 |
| 20260904092219 | 14 | 151 | 0.0 | 0.0 | 0.00 | 0.00 | 0.00 | 93 | 1016.1 |
| 20260904091714 | 14 | 151 | 0.0 | 0.0 | 0.00 | 0.00 | 0.00 | 93 | 1016.1 |
| 20260904091210 | 14 | 151 | 0.0 | 0.0 | 0.00 | 0.00 | 0.00 | 93 | 1016.1 |
| 20260904090705 | 14 | 151 | 0.0 | 0.0 | 0.00 | 0.00 | 0.00 | 93 | 1016.0 |
| 20260904090201 | 15 | 151 | 0.0 | 0.0 | 0.00 | 0.00 | 0.00 | 93 | 1016.0 |
| 20260904085655 | 15 | 151 | 0.0 | 0.0 | 0.00 | 0.00 | 0.00 | 92 | 1015.9 |
| 20260904085150 | 15 | 151 | 0.0 | 0.0 | 0.00 | 0.00 | 0.00 | 92 | 1016.0 |
| 20260904084645 | 15 | 151 | 0.0 | 0.0 | 0.00 | 0.00 | 0.00 | 92 | 1016.2 |
| 20260904084142 | 15 | 151 | 0.0 | 0.0 | 0.00 | 0.00 | 0.00 | 92 | 1016.1 |
| 20260904083638 | 15 | 151 | 0.0 | 0.0 | 0.00 | 0.00 | 0.00 | 92 | 1016.3 |
| 20260904083133 | 15 | 151 | 0.0 | 0.0 | 0.00 | 0.00 | 0.00 | 92 | 1016.2 |
| 20260904082628 | 15 | 151 | 0.0 | 0.0 | 0.00 | 0.00 | 0.00 | 92 | 1016.1 |
| 20260904082124 | 15 | 151 | 0.0 | 0.0 | 0.00 | 0.00 | 0.00 | 92 | 1016.2 |
| 20260904081619 | 15 | 151 | 0.0 | 0.0 | 0.00 | 0.00 | 0.00 | 92 | 1016.5 |
| 20260904081114 | 15 | 151 | 0.0 | 0.0 | 0.00 | 0.00 | 0.00 | 92 | 1016.2 |
| 20260904080610 | 15 | 151 | 0.0 | 0.0 | 0.00 | 0.00 | 0.00 | 92 | 1016.6 |
| 20260904080106 | 15 | 151 | 0.0 | 0.0 | 0.00 | 0.00 | 0.00 | 92 | 1016.4 |
| 20260904075601 | 15 | 151 | 0.0 | 0.0 | 0.00 | 0.00 | 0.00 | 92 | 1016.3 |
| 20260904075055 | 15 | 152 | 0.0 | 0.0 | 0.00 | 0.00 | 0.00 | 92 | 1016.5 |
| 20260904074555 | 15 | 151 | 0.0 | 0.0 | 0.00 | 0.00 | 0.00 | 93 | 1016.4 |
| 20260904074050 | 15 | 149 | 0.0 | 0.0 | 0.00 | 0.00 | 0.00 | 92 | 1016.5 |
| 20260904073544 | 15 | 171 | 0.0 | 0.0 | 0.00 | 0.00 | 0.00 | 92 | 1016.7 |
| 20260904073041 | 15 | 171 | 0.0 | 0.0 | 0.00 | 0.00 | 0.00 | 92 | 1016.4 |
| 20260904072536 | 15 | 171 | 0.0 | 0.0 | 0.00 | 0.00 | 0.00 | 92 | 1016.5 |
| 20260904072031 | 15 | 166 | 0.0 | 0.0 | 0.00 | 0.00 | 0.00 | 92 | 1016.5 |
| 20260904071526 | 15 | 166 | 0.0 | 0.0 | 0.00 | 0.00 | 0.00 | 93 | 1016.4 |
| 20260904071021 | 15 | 157 | 0.0 | 0.0 | 0.00 | 0.00 | 0.00 | 92 | 1016.5 |
| 20260904070521 | 15 | 157 | 0.0 | 0.0 | 0.00 | 0.00 | 0.00 | 92 | 1016.3 |
| 20260904070016 | 15 | 157 | 0.0 | 0.0 | 0.00 | 0.00 | 0.00 | 93 | 1016.1 |
| 20260904065511 | 15 | 157 | 0.0 | 0.0 | 0.00 | 0.00 | 0.00 | 93 | 1016.3 |
| 20260904065007 | 15 | 157 | 0.0 | 0.0 | 0.00 | 0.00 | 0.00 | 93 | 1016.3 |
| 20260904064503 | 15 | 157 | 0.0 | 0.0 | 0.00 | 0.00 | 0.00 | 93 | 1016.3 |
| 20260904064002 | 15 | 157 | 0.0 | 0.0 | 0.00 | 0.00 | 0.00 | 93 | 1016.3 |
| 20260904063459 | 15 | 157 | 0.0 | 0.0 | 0.00 | 0.00 | 0.00 | 93 | 1016.2 |
| 20260904062954 | 15 | 157 | 0.0 | 0.0 | 0.00 | 0.00 | 0.00 | 93 | 1016.2 |
| 20260904062450 | 15 | 155 | 0.0 | 0.0 | 0.00 | 0.00 | 0.00 | 93 | 1016.2 |
| 20260904061945 | 16 | 155 | 0.0 | 0.0 | 0.00 | 0.00 | 0.00 | 93 | 1016.0 |
| 20260904061442 | 15 | 155 | 0.0 | 0.0 | 0.00 | 0.00 | 0.00 | 92 | 1016.2 |
| 20260904060937 | 15 | 152 | 0.0 | 0.0 | 0.00 | 0.00 | 0.00 | 92 | 1016.2 |
| 20260904060433 | 16 | 155 | 0.0 | 0.0 | 0.00 | 0.00 | 0.00 | 92 | 1016.4 |
| 20260904055929 | 16 | 155 | 0.0 | 0.0 | 0.00 | 0.00 | 0.00 | 92 | 1016.2 |
| 20260904055424 | 16 | 153 | 0.0 | 0.0 | 0.00 | 0.00 | 0.00 | 92 | 1016.3 |
| 20260904054920 | 16 | 155 | 0.0 | 0.0 | 0.00 | 0.00 | 0.00 | 92 | 1016.1 |
| 20260904054415 | 16 | 153 | 0.0 | 0.0 | 0.00 | 0.00 | 0.00 | 92 | 1016.4 |
| 20260904053911 | 16 | 153 | 0.0 | 0.0 | 0.00 | 0.00 | 0.00 | 92 | 1016.3 |
| 20260904053410 | 16 | 153 | 0.0 | 0.0 | 0.00 | 0.00 | 0.00 | 92 | 1016.2 |
| 20260904052906 | 16 | 153 | 0.0 | 0.0 | 0.00 | 0.00 | 0.00 | 91 | 1016.5 |
| 20260904052402 | 16 | 153 | 0.0 | 0.0 | 0.00 | 0.00 | 0.00 | 91 | 1016.4 |
| 20260904051859 | 16 | 153 | 0.0 | 0.0 | 0.00 | 0.00 | 0.00 | 91 | 1016.5 |
| 20260904051354 | 16 | 153 | 0.0 | 0.0 | 0.00 | 0.00 | 0.00 | 91 | 1016.4 |
| 20260904050848 | 16 | 153 | 0.0 | 0.0 | 0.00 | 0.00 | 0.00 | 90 | 1016.8 |
| 20260904050345 | 16 | 153 | 0.0 | 0.0 | 0.00 | 0.00 | 0.00 | 90 | 1016.7 |
| 20260904045839 | 16 | 152 | 0.0 | 0.0 | 0.00 | 0.00 | 0.00 | 89 | 1016.7 |
| 20260904045334 | 16 | 153 | 0.0 | 0.0 | 0.00 | 0.00 | 0.00 | 88 | 1016.6 |
| 20260904044829 | 17 | 152 | 0.0 | 0.0 | 0.00 | 0.00 | 0.00 | 87 | 1016.3 |
| 20260904044325 | 17 | 163 | 0.0 | 0.0 | 0.00 | 0.00 | 0.00 | 87 | 1016.7 |
| 20260904043821 | 17 | 162 | 0.0 | 0.0 | 0.00 | 0.00 | 0.00 | 88 | 1016.5 |
| 20260904043317 | 17 | 168 | 0.0 | 0.0 | 0.00 | 0.00 | 0.00 | 89 | 1016.6 |
| 20260904042812 | 17 | 167 | 0.0 | 0.0 | 0.00 | 0.00 | 0.00 | 88 | 1016.5 |
| 20260904042309 | 17 | 176 | 0.0 | 0.0 | 0.00 | 0.00 | 0.00 | 88 | 1016.4 |
| 20260904041808 | 17 | 170 | 0.0 | 0.0 | 0.00 | 0.00 | 0.00 | 87 | 1016.6 |
| 20260904041305 | 17 | 169 | 0.0 | 0.0 | 0.00 | 0.00 | 0.00 | 87 | 1016.5 |
| 20260904040800 | 17 | 183 | 1.6 | 1.6 | 0.00 | 0.00 | 0.00 | 87 | 1016.3 |
| 20260904040256 | 17 | 187 | 0.0 | 0.0 | 0.00 | 0.00 | 0.00 | 86 | 1016.4 |
| 20260904035751 | 17 | 157 | 0.0 | 0.0 | 0.00 | 0.00 | 0.00 | 86 | 1016.2 |
| 20260904035247 | 17 | 166 | 0.0 | 0.0 | 0.00 | 0.00 | 0.00 | 85 | 1016.3 |
| 20260904034746 | 17 | 162 | 0.0 | 0.0 | 0.00 | 0.00 | 0.00 | 85 | 1016.5 |
| 20260904034241 | 17 | 158 | 0.0 | 0.0 | 0.00 | 0.00 | 0.00 | 84 | 1016.2 |
| 20260904033736 | 17 | 167 | 0.0 | 0.0 | 0.00 | 0.00 | 0.00 | 84 | 1016.3 |
| 20260904033233 | 17 | 162 | 0.0 | 0.0 | 0.00 | 0.00 | 0.00 | 84 | 1016.2 |
| 20260904032729 | 17 | 162 | 0.0 | 0.0 | 0.00 | 0.00 | 0.00 | 83 | 1016.0 |
| 20260904032228 | 18 | 158 | 0.0 | 0.0 | 0.00 | 0.00 | 0.00 | 83 | 1016.2 |
| 20260904031723 | 18 | 162 | 0.0 | 0.0 | 0.00 | 0.00 | 0.00 | 82 | 1016.3 |
| 20260904031218 | 18 | 160 | 0.0 | 0.0 | 0.00 | 0.00 | 0.00 | 82 | 1016.0 |
| 20260904030714 | 18 | 161 | 0.0 | 1.6 | 0.00 | 0.00 | 0.00 | 82 | 1015.9 |
| 20260904030209 | 18 | 170 | 0.0 | 0.0 | 0.00 | 0.00 | 0.00 | 81 | 1016.1 |
| 20260904025706 | 18 | 155 | 0.0 | 1.6 | 0.00 | 0.00 | 0.00 | 81 | 1016.0 |
| 20260904025200 | 18 | 131 | 0.0 | 0.0 | 0.00 | 0.00 | 0.00 | 80 | 1015.9 |
| 20260904024656 | 18 | 128 | 0.0 | 1.6 | 0.00 | 0.00 | 0.00 | 80 | 1015.9 |
| 20260904024151 | 18 | 178 | 0.0 | 1.6 | 0.00 | 0.00 | 0.00 | 79 | 1015.9 |
| 20260904023647 | 18 | 144 | 0.0 | 1.6 | 0.00 | 0.00 | 0.00 | 78 | 1015.7 |
| 20260904023143 | 19 | 190 | 0.0 | 3.2 | 0.00 | 0.00 | 0.00 | 78 | 1015.8 |
| 20260904022642 | 19 | 208 | 3.2 | 6.4 | 0.00 | 0.00 | 0.00 | 77 | 1015.8 |
| 20260904022139 | 19 | 178 | 0.0 | 1.6 | 0.00 | 0.00 | 0.00 | 77 | 1015.9 |
| 20260904021635 | 20 | 249 | 3.2 | 3.2 | 0.00 | 0.00 | 0.00 | 76 | 1015.9 |
| 20260904021125 | 20 | 178 | 1.6 | 9.7 | 0.00 | 0.00 | 0.00 | 75 | 1015.8 |
| 20260904020621 | 20 | 103 | 1.6 | 3.2 | 0.00 | 0.00 | 0.00 | 75 | 1015.7 |
| 20260904020115 | 20 | 245 | 3.2 | 3.2 | 0.00 | 0.00 | 0.00 | 74 | 1015.8 |
| 20260904015615 | 20 | 141 | 0.0 | 3.2 | 0.00 | 0.00 | 0.00 | 73 | 1015.7 |
| 20260904015113 | 20 | 53 | 0.0 | 3.2 | 0.00 | 0.00 | 0.00 | 73 | 1015.5 |
| 20260904014607 | 21 | 92 | 1.6 | 4.8 | 0.00 | 0.00 | 0.00 | 72 | 1015.6 |
| 20260904014103 | 21 | 203 | 1.6 | 1.6 | 0.00 | 0.00 | 0.00 | 72 | 1015.8 |
| 20260904013600 | 21 | 155 | 0.0 | 1.6 | 0.00 | 0.00 | 0.00 | 72 | 1015.8 |
| 20260904013056 | 21 | 148 | 0.0 | 4.8 | 0.00 | 0.00 | 0.00 | 71 | 1015.8 |